Flag for U.S.A. Weather past 2 weeks in Bridgeport, Connecticut, U.S.A.

Now
48 °F

Partly sunny.


Feels Like: 45 °F
Forecast: 33 / 49 °F
Wind: 7 mph from West

Location: Sikorsky Memorial Airport

Current Time: Mar 30, 2015 at 7:36:47 PM

Latest Report: Mar 30, 2015 at 6:52 PM


Visibility: 10 mi

Pressure: 29.77 "Hg

Humidity: 50%

Dew point: 30 °F

Location of BridgeportLocation

Historic Weather in Bridgeport — Graph

°F

Bridgeport temperature yesterday

Maximum temperature yesterday: 43 °F (at 2:52 PM)
Minimum temperature yesterday: 26 °F (at 5:52 AM)
Average temperature yesterday: 34 °F

Past Weeks' High & Low Weather Summary

 TemperatureHumidityPressure
High53 °F (Mar 17, 12:52 PM)100% (Mar 26, 2:52 AM)30.43 "Hg (Mar 26, 2:52 AM)
Low21 °F (Mar 23, 3:52 AM)19% (Mar 19, 5:52 PM)29.51 "Hg (Mar 17, 1:52 PM)
Average35 °F62%30.03 "Hg
* Reported Mar 15 5:52 PM — Mar 30 5:52 PM, Bridgeport, Weather by CustomWeather, © 2015

Note: Actual official high and low records may vary slightly from our data, if they occured in-between our weather recording intervals... More about our weather records

Advertising

Bridgeport weather history for previous 24 hours

 ConditionsComfort  
Time TempWeatherWind HumidityBarometerVisibility
5:52 PM
Mon, Mar 30
51 °FOvercast.10 mph44%29.75 "Hg10 mi
4:52 PM51 °FOvercast.18 mph42%29.74 "Hg10 mi
3:52 PM47 °FMostly cloudy.12 mph61%29.74 "Hg10 mi
2:52 PM43 °FMostly cloudy.13 mph68%29.76 "Hg10 mi
1:52 PM43 °FSunny.13 mph71%29.78 "Hg10 mi
12:52 PM41 °FOvercast.9 mph76%29.80 "Hg10 mi
11:52 AM40 °FMostly cloudy.10 mph80%29.83 "Hg10 mi
10:52 AM38 °FOvercast.12 mph83%29.86 "Hg10 mi
9:52 AM37 °FOvercast.7 mph93%29.88 "Hg10 mi
8:52 AM35 °FMostly cloudy.7 mph88%29.90 "Hg9 mi
7:59 AM34 °FLight snow. Fog.9 mph88%29.93 "Hg5 mi
7:52 AM33 °FLight snow. Fog.10 mph88%29.93 "Hg2 mi
7:02 AM35 °FLight snow. Overcast.17 mph75%29.96 "Hg2 mi
6:52 AM37 °FLight snow. Mostly cloudy.22 mph73%29.96 "Hg7 mi
5:52 AM37 °FMostly cloudy.8 mph67%29.98 "Hg10 mi
4:52 AM36 °FClear.12 mph64%29.99 "Hg10 mi
3:52 AM36 °FClear.9 mph67%30.02 "Hg10 mi
2:52 AM36 °FClear.12 mph67%30.04 "Hg10 mi
1:52 AM36 °FClear.8 mph75%30.09 "Hg10 mi
12:52 AM35 °FClear.8 mph78%30.10 "Hg10 mi
11:52 PM
Sun, Mar 29
33 °FClear.7 mph78%30.11 "Hg10 mi
10:52 PM35 °FClear.10 mph70%30.14 "Hg10 mi
9:52 PM36 °FClear.14 mph64%30.13 "Hg10 mi
8:52 PM38 °FClear.9 mph51%30.14 "Hg10 mi
7:52 PM38 °FSunny.7 mph46%30.15 "Hg10 mi
Weather by CustomWeather, © 2015

See weather overviewHow to use our weather pages